This is the latest recevied weather packets stored in our database for station/object E24QND-2. If no packets are shown the sender has not sent any weather packets the latest 10 day(s).
| Time | Temp. | Humidity | Pressure | Rain* | Wind** | Luminosity | Snow |
|---|---|---|---|---|---|---|---|
| 1788443585 | 30° C | 99% | - | - | - | 0 W/m² | - |
| 1788442360 | 30.56° C | 99% | - | - | - | 0 W/m² | - |
| 1788441136 | 30° C | 1% | - | - | - | 0 W/m² | - |
| 1788439911 | 31.11° C | 1% | - | - | - | 0 W/m² | - |
| 1788438687 | 31.11° C | 1% | - | - | - | 0 W/m² | - |
| 1788437464 | 31.11° C | 1% | - | - | - | 0 W/m² | - |
| 1788436239 | 31.67° C | 53% | - | - | - | 0 W/m² | - |
| 1788435013 | 32.22° C | 1% | - | - | - | 0 W/m² | - |
| 1788433788 | 32.22° C | 42% | - | - | - | 0 W/m² | - |
| 1788432564 | 32.22° C | 99% | - | - | - | 0 W/m² | - |
| 1788431339 | 32.78° C | 1% | - | - | - | 0 W/m² | - |
| 1788430115 | 33.33° C | 99% | - | - | - | 0 W/m² | - |
| 1788428890 | 33.33° C | 1% | - | - | - | 0 W/m² | - |
| 1788427666 | 33.89° C | 1% | - | - | - | 0 W/m² | - |
| 1788426441 | 34.44° C | 1% | - | - | - | 0 W/m² | - |
| 1788425217 | 34.44° C | 99% | - | - | - | 0 W/m² | - |
| 1788423992 | 35° C | 1% | - | - | - | 0 W/m² | - |
| 1788422767 | 34.44° C | 99% | - | - | - | 0 W/m² | - |
| 1788421543 | 35° C | 99% | - | - | - | 0 W/m² | - |
| 1788420318 | 35° C | 1% | - | - | - | 0 W/m² | - |
| 1788419093 | 35.56° C | 1% | - | - | - | 0 W/m² | - |
| 1788417869 | 35.56° C | 1% | - | - | - | 0 W/m² | - |
| 1788416644 | 34.44° C | 1% | - | - | - | 0 W/m² | - |
| 1788415420 | 35.56° C | 1% | - | - | - | 0 W/m² | - |
| 1788414195 | 36.11° C | 1% | - | - | - | 0 W/m² | - |
* Rain since midnight (hover to see other rain measurements)
** Current wind speed in m/s (hover to see current wind gust speed)